Find Starlink 35757

NORAD ID: 66270 Int'l Des: 2025-247 Owner: SPXS Country: US Constellation: starlink operational
LEOCIRCULAR

Aktuelle Ansicht

3D-Globus wird geladen...

Über Starlink 35757

Beschreibung wird geladen...

Nächste Überflüge

Passes for default location (London). Set your location on the main map for personalized predictions.

Höhenverlauf

Loading altitude history...

Zweizeiliger Elementsatz

1 66270U 25247F 26146.11846150 .00020629 00000-0 61998-3 0 9991
2 66270 53.1606 190.7141 0001399 100.2383 259.8778 15.34401017 32957
Epoch: 26. Mai 2026 • Age: 14 hours

Aktueller Status

Höhe 465.4 km
Geschwindigkeit 7.64 km/s
Subsatellitenpunkt 38.93°N, 83.61°E
Startdatum 31. Okt. 2025
Alter 0.5 years
Typ internet

Technische Details

Klassifizierung Payload
Masse 575.00 kg
Trockenmasse 530.00 kg
Gesamtmasse 575.00 kg
Länge 0.30 m
Durchmesser 4.10 m
Spannweite 29.00 m
Form Box + pan
Hersteller SPXS
Bus-Typ Starlink V2MO
Phasenstatus In Orbit
Besitzer/Staat SPXS/US

Most Searched